Regional Weather Roundup
Issued by NWS

Home | Current Version | Previous Version | Text Only | Print | Product List | Glossary On
Versions: 1 2 3 4 5 6 7 8 9 10 11 12 13 14 15 16 17 18 19 20 21 22 23 24 25 26 27 28 29 30 31 32 33 34 35 36 37 38 39 40 41 42 43 44 45 46 47 48 49 50
000
ASUS44 KMEG 290110
RWRTN
TENNESSEE HOURLY STATE WEATHER ROUNDUP
NATIONAL WEATHER SERVICE MEMPHIS TN
800 PM CDT FRI AUG 28 2015

TNZ002-004-019-021-049-052-054-088>092-290200-
WEST TENNESSEE

CITY           SKY/WX    TMP DP  RH WIND       PRES   REMARKS
MEMPHIS INTL   PTCLDY    84  65  52 SE6       30.00S
NWS MEMPHIS      N/A     79 N/A N/A MISG        N/A
JACKSON        CLEAR     73  68  84 CALM      30.02S
DYERSBURG      PTCLDY   N/A N/A N/A MISG        N/A
UNION CITY     CLEAR     75  70  83 CALM      30.02R
PARIS          PTCLDY    70  64  83 CALM      30.05R
LEXINGTON      CLEAR     73  68  83 CALM      30.04R
$$

TNZ008-025-027-028-033-062-065-066-290200-
NORTH MIDDLE TENNESSEE

CITY           SKY/WX    TMP DP  RH WIND       PRES   REMARKS
NASHVILLE      PTCLDY    79  62  56 S5        30.06R
CLARKSVILLE    CLEAR     75  64  68 CALM      30.04R
SMYRNA         CLEAR     77  65  66 CALM      30.07R
COOKEVILLE     CLEAR     72  66  83 CALM      30.10R
CROSSVILLE     CLEAR     71  64  78 CALM      30.16R
$$

TNZ061-075-076-078-094-096-097-290200-
SOUTH MIDDLE TENNESSEE

CITY           SKY/WX    TMP DP  RH WIND       PRES   REMARKS
FAYETTEVILLE     N/A     75  64  69 CALM      30.09R
TULLAHOMA      CLEAR     77  64  65 SE3       30.11R
WINCHESTER     CLEAR     72  68  88 SE6       30.10R
MCMINNVILLE    CLEAR     73  70  88 CALM      30.11R
COLUMBIA       CLEAR     75  70  83 SE3       30.05R
SHELBYVILLE    CLEAR     75  70  83 E3        30.09R
$$

TNZ017-018-042-046-047-290200-
NORTHEAST TENNESSEE

CITY           SKY/WX    TMP DP  RH WIND       PRES   REMARKS
TRI CITIES     PTCLDY    70  63  78 E3        30.16R
ELIZABETHTON   CLEAR     64  61  88 CALM      30.18R
$$

TNZ012-013-036-069-073-074-290200-
CENTRAL EAST TENNESSEE

CITY           SKY/WX    TMP DP  RH WIND       PRES   REMARKS
KNOXVILLE      MOCLDY    79  61  53 E5        30.11R
OAK RIDGE      MOCLDY    75  65  70 CALM      30.13R
GATLINBURG     PTCLDY    73  61  64 CALM      30.12R
MORRISTOWN     CLEAR     73  63  68 CALM      30.15R
$$

TNZ083-085-099-290200-
SOUTHEAST TENNESSEE

CITY           SKY/WX    TMP DP  RH WIND       PRES   REMARKS
CHATTANOOGA    PTCLDY    79  65  62 SE3       30.11R
$$

SKY/WX REPORTED AS FAIR MEANS FEW OR NO CLOUDS BELOW
12 THOUSAND FEET.



USA.gov is the U.S. government's official web portal to all federal, state and local government web resources and services.